• In Uzbekistan
  • List of Countries
  • For 7 days
  • Water Temperature
  • Satellite Maps
  • Weather Map
  • Weather Widgets
  • user-avatar
    Login

    Hourly Weather Wallenhorst

    Today, 23 November, Thursday

    Time Temperature Precipitation Wind Pressure Humidity
    00:00 +8°C° 0 mm 7 mps 743 mmHg 64%
    01:00 +8°C° 0 mm 7 mps 743 mmHg 62%
    02:00 +8°C° 0 mm 7 mps 743 mmHg 62%
    03:00 +8°C° 0 mm 7 mps 742 mmHg 62%
    04:00 +8°C° 0 mm 7 mps 742 mmHg 62%
    05:00 +8°C° 0 mm 7 mps 742 mmHg 63%
    06:00 +8°C° 0 mm 7 mps 742 mmHg 64%
    07:00 +8°C° 0 mm 7 mps 741 mmHg 65%
    08:00 +9°C° 0 mm 8 mps 741 mmHg 65%
    09:00 +10°C° 0 mm 9 mps 741 mmHg 65%
    10:00 +11°C° 0 mm 9 mps 741 mmHg 65%
    11:00 +11°C° 0 mm 9 mps 741 mmHg 65%
    12:00 +12°C° 0 mm 10 mps 741 mmHg 65%
    13:00 +12°C° 0 mm 10 mps 741 mmHg 64%
    14:00 +12°C° 0.1 mm 9 mps 742 mmHg 68%
    15:00 +12°C° 0.1 mm 8 mps 743 mmHg 71%
    16:00 +12°C° 0.1 mm 8 mps 743 mmHg 74%
    17:00 +11°C° 0.2 mm 7 mps 744 mmHg 76%
    18:00 +10°C° 0.2 mm 6 mps 745 mmHg 78%
    19:00 +9°C° 0.2 mm 5 mps 746 mmHg 80%
    20:00 +9°C° 0 mm 5 mps 746 mmHg 79%
    21:00 +8°C° 0 mm 5 mps 747 mmHg 79%
    22:00 +8°C° 0 mm 5 mps 748 mmHg 79%
    23:00 +7°C° 0 mm 5 mps 748 mmHg 79%

    Tomorrow, 24 November, Friday

    Time Temperature Precipitation Wind Pressure Humidity
    00:00 +7°C° 0 mm 5 mps 748 mmHg 80%
    01:00 +7°C° 0 mm 4 mps 748 mmHg 81%
    02:00 +7°C° 0 mm 4 mps 748 mmHg 81%
    03:00 +7°C° 0 mm 3 mps 747 mmHg 82%
    04:00 +7°C° 0 mm 3 mps 747 mmHg 82%
    05:00 +8°C° 1.2 mm 3 mps 746 mmHg 85%
    06:00 +8°C° 1.2 mm 3 mps 746 mmHg 87%
    07:00 +8°C° 1.2 mm 3 mps 745 mmHg 89%
    08:00 +8°C° 0.4 mm 5 mps 745 mmHg 87%
    09:00 +9°C° 0.4 mm 6 mps 745 mmHg 86%
    10:00 +9°C° 0.4 mm 7 mps 744 mmHg 84%
    11:00 +9°C° 0.5 mm 7 mps 745 mmHg 84%
    12:00 +9°C° 0.5 mm 7 mps 745 mmHg 84%
    13:00 +8°C° 0.5 mm 7 mps 745 mmHg 84%
    14:00 +7°C° 0.2 mm 6 mps 746 mmHg 84%
    15:00 +6°C° 0.2 mm 5 mps 747 mmHg 83%
    16:00 +5°C° 0.2 mm 5 mps 748 mmHg 83%
    17:00 +5°C° 0 mm 4 mps 749 mmHg 83%
    18:00 +5°C° 0 mm 4 mps 750 mmHg 83%
    19:00 +4°C° 0 mm 3 mps 751 mmHg 83%
    20:00 +4°C° 0 mm 3 mps 751 mmHg 84%
    21:00 +4°C° 0 mm 3 mps 752 mmHg 86%
    22:00 +3°C° 0 mm 3 mps 752 mmHg 87%
    23:00 +4°C° 0 mm 2 mps 752 mmHg 88%

    Day after tomorrow, 25 November, Saturday

    Time Temperature Precipitation Wind Pressure Humidity
    00:00 +4°C° 0 mm 2 mps 752 mmHg 88%
    01:00 +3°C° 0 mm 2 mps 752 mmHg 89%
    02:00 +3°C° 0 mm 2 mps 752 mmHg 88%
    03:00 +3°C° 0 mm 2 mps 752 mmHg 88%
    04:00 +3°C° 0 mm 2 mps 752 mmHg 88%
    05:00 +3°C° 0 mm 2 mps 752 mmHg 88%
    06:00 +4°C° 0 mm 1 mps 752 mmHg 88%
    07:00 +4°C° 0 mm 1 mps 752 mmHg 88%
    08:00 +4°C° 0 mm 1 mps 752 mmHg 86%
    09:00 +4°C° 0 mm 1 mps 752 mmHg 85%
    10:00 +5°C° 0 mm 1 mps 752 mmHg 83%
    11:00 +5°C° 0 mm 2 mps 751 mmHg 79%
    12:00 +5°C° 0 mm 2 mps 751 mmHg 75%
    13:00 +6°C° 0 mm 2 mps 751 mmHg 71%
    14:00 +6°C° 0.1 mm 2 mps 751 mmHg 73%
    15:00 +5°C° 0.1 mm 2 mps 751 mmHg 76%
    16:00 +5°C° 0.1 mm 2 mps 751 mmHg 79%
    17:00 +4°C° 0.1 mm 2 mps 752 mmHg 80%
    18:00 +4°C° 0.1 mm 2 mps 752 mmHg 80%
    19:00 +3°C° 0.1 mm 3 mps 752 mmHg 81%
    20:00 +2°C° 0 mm 3 mps 752 mmHg 81%
    21:00 +2°C° 0 mm 3 mps 753 mmHg 81%
    22:00 +1°C° 0 mm 4 mps 753 mmHg 80%
    23:00 +1°C° 0 mm 4 mps 753 mmHg 81%

    26 November, Sunday

    Time Temperature Precipitation Wind Pressure Humidity
    00:00 0°C° 0 mm 5 mps 753 mmHg 82%
    01:00 0°C° 0 mm 5 mps 754 mmHg 82%
    02:00 0°C° 0 mm 5 mps 754 mmHg 82%
    03:00 -1°C° 0 mm 6 mps 754 mmHg 81%
    04:00 -1°C° 0 mm 6 mps 754 mmHg 81%
    05:00 -1°C° 0 mm 6 mps 754 mmHg 81%
    06:00 -1°C° 0 mm 6 mps 754 mmHg 81%
    07:00 -1°C° 0 mm 6 mps 754 mmHg 81%
    08:00 -1°C° 0 mm 7 mps 754 mmHg 80%
    09:00 0°C° 0 mm 7 mps 755 mmHg 78%
    10:00 0°C° 0 mm 8 mps 755 mmHg 76%
    11:00 +1°C° 0.1 mm 8 mps 755 mmHg 76%
    12:00 +1°C° 0.1 mm 8 mps 755 mmHg 75%
    13:00 +2°C° 0.1 mm 8 mps 755 mmHg 74%
    14:00 +2°C° 0.1 mm 8 mps 755 mmHg 75%
    15:00 +3°C° 0.1 mm 7 mps 755 mmHg 76%
    16:00 +3°C° 0.1 mm 7 mps 755 mmHg 77%
    17:00 +2°C° 0.1 mm 7 mps 755 mmHg 79%
    18:00 +2°C° 0.1 mm 7 mps 755 mmHg 80%
    19:00 +2°C° 0.1 mm 7 mps 755 mmHg 82%
    20:00 +2°C° 0 mm 7 mps 756 mmHg 83%
    21:00 +1°C° 0 mm 6 mps 756 mmHg 84%
    22:00 +1°C° 0 mm 6 mps 756 mmHg 86%
    23:00 +1°C° 0 mm 6 mps 756 mmHg 86%

    27 November, Monday

    Time Temperature Precipitation Wind Pressure Humidity
    00:00 +1°C° 0 mm 6 mps 756 mmHg 87%
    01:00 +1°C° 0 mm 6 mps 756 mmHg 88%
    02:00 +1°C° 0 mm 6 mps 756 mmHg 88%
    03:00 +1°C° 0 mm 6 mps 756 mmHg 89%
    04:00 +1°C° 0 mm 6 mps 756 mmHg 89%
    05:00 +1°C° 0.1 mm 6 mps 755 mmHg 89%
    06:00 +1°C° 0.1 mm 6 mps 755 mmHg 89%
    07:00 +1°C° 0.1 mm 6 mps 755 mmHg 89%
    08:00 +1°C° 0.1 mm 6 mps 755 mmHg 87%
    09:00 +2°C° 0.1 mm 6 mps 755 mmHg 86%
    10:00 +2°C° 0.1 mm 7 mps 755 mmHg 85%
    11:00 +2°C° 0.1 mm 7 mps 754 mmHg 82%
    12:00 +3°C° 0.1 mm 7 mps 754 mmHg 79%
    13:00 +2°C° 0.1 mm 8 mps 753 mmHg 76%
    14:00 +2°C° 0.7 mm 8 mps 752 mmHg 77%
    15:00 +2°C° 0.7 mm 8 mps 751 mmHg 78%
    16:00 +2°C° 0.7 mm 8 mps 751 mmHg 79%
    17:00 +2°C° 0.7 mm 8 mps 750 mmHg 81%
    18:00 +2°C° 0.7 mm 8 mps 750 mmHg 84%
    19:00 +2°C° 0.7 mm 8 mps 750 mmHg 86%
    20:00 +3°C° 0.2 mm 7 mps 749 mmHg 86%
    21:00 +3°C° 0.2 mm 7 mps 749 mmHg 86%
    22:00 +4°C° 0.2 mm 6 mps 749 mmHg 86%
    23:00 +3°C° 0.1 mm 6 mps 749 mmHg 84%

    28 November, Tuesday

    Time Temperature Precipitation Wind Pressure Humidity
    00:00 +3°C° 0.1 mm 6 mps 748 mmHg 82%
    01:00 +3°C° 0.1 mm 7 mps 748 mmHg 80%
    02:00 +3°C° 0.1 mm 7 mps 747 mmHg 81%
    03:00 +3°C° 0.1 mm 7 mps 747 mmHg 82%
    04:00 +3°C° 0.1 mm 7 mps 746 mmHg 84%
    05:00 +3°C° 0.1 mm 7 mps 746 mmHg 84%
    06:00 +3°C° 0.1 mm 7 mps 746 mmHg 84%
    07:00 +3°C° 0.1 mm 7 mps 745 mmHg 85%
    08:00 +3°C° 0 mm 7 mps 745 mmHg 86%
    09:00 +3°C° 0 mm 6 mps 745 mmHg 86%
    10:00 +3°C° 0 mm 6 mps 745 mmHg 87%
    11:00 +3°C° 0.3 mm 6 mps 744 mmHg 86%
    12:00 +5°C° 0.3 mm 5 mps 743 mmHg 86%
    13:00 +5°C° 0.3 mm 5 mps 742 mmHg 85%
    14:00 +5°C° 1.6 mm 5 mps 742 mmHg 84%
    15:00 +4°C° 1.6 mm 6 mps 741 mmHg 84%
    16:00 +4°C° 1.6 mm 6 mps 741 mmHg 84%
    17:00 +3°C° 0.3 mm 6 mps 741 mmHg 84%
    18:00 +3°C° 0.3 mm 5 mps 741 mmHg 84%
    19:00 +3°C° 0.3 mm 5 mps 741 mmHg 84%
    20:00 +2°C° 0.1 mm 5 mps 741 mmHg 86%
    21:00 +2°C° 0.1 mm 5 mps 741 mmHg 89%
    22:00 +2°C° 0.1 mm 5 mps 742 mmHg 92%
    23:00 +1°C° 0 mm 4 mps 742 mmHg 92%
    Show more